Other Public Products
Issued by NWS Grand Forks, ND

Home | Current Version | Previous Version | Graphics & Text | Print | Product List | Glossary On
Versions: 1 2 3 4 5 6 7 8 9 10 11 12 13 14 15 16 17 18 19 20 21 22 23 24 25 26 27 28 29 30 31 32 33 34 35 36 37 38 39 40 41 42 43 44 45 46 47 48 49 50
000
FPUS83 KFGF 250231
OPUFGF
PRAIRIE TO PINES WEATHER ROUNDUP
NATIONAL WEATHER SERVICE EASTERN NORTH DAKOTA/GRAND FORKS ND
900 PM CDT FRI MAR 24 2017

 **SATELLITE DATA USED TO AUGMENT SKY COVER AT AUTOMATED STATIONS**
 *****  WEATHER ACROSS EASTERN NORTH DAKOTA  *****

CITY           SKY/WX    TMP DP  RH WIND       PRES   REMARKS
GRAND FORKS    FAIR      30  28  92 N6        30.23R WCI  24
GRAND FORKS AF FAIR      30  27  86 NE5       30.23R
GRAND CITY NWS NOT AVBL
BUXTON         NOT AVBL
DEVILS LAKE    CLOUDY    30  27  86 SE9       30.20S WCI  22
FARGO          FAIR      31  29  92 N6        30.20S
WAHPETON ARPT  FAIR      34  30  86 N12       30.20R
$$

 *****  WEATHER ACROSS CENTRAL AND WESTERN NORTH DAKOTA  *****

CITY           SKY/WX    TMP DP  RH WIND       PRES   REMARKS
JAMESTOWN      CLOUDY    31  28  89 E8        30.18R WCI  23
BISMARCK       FAIR      36  32  85 E10       30.14S
MINOT          FAIR      32  28  85 E12       30.13R WCI  23
MINOT AFB      FAIR      31  28  89 SE13      30.12R WCI  22
GARRISON         N/A     33  30  88 E14       30.11R WCI  23
WILLISTON      FAIR      44  32  62 E14G24    29.97R
DICKINSON      FAIR      43  32  65 SE17      30.02R
HETTINGER      FAIR      46  32  58 E13       30.05R
$$

 *****  OTHER OBSERVATIONS NORTHEAST NORTH DAKOTA  *****

CITY           SKY/WX    TMP DP  RH WIND       PRES   REMARKS
WALHALLA       NOT AVBL
LANGDON        CLOUDY    30  27  86 E7        30.21S WCI  23
CAVALIER         N/A     32  27  80 CALM      30.25R
GRAFTON        FAIR      30  30 100 N5        30.25S
CANDO          NOT AVBL
FORT TOTTEN    NOT AVBL
ROLLA          CLOUDY    28  28 100 SE12      30.19R WCI  18
RUGBY            N/A     28  27  93 E8        30.17S WCI  20
 ***** THE ABOVE OBSERVATIONS ARE NON NWS ARE NOT QUALITY
        CONTROLLED AND MAY MIS-REPORT RAIN FOR SNOW...
$$

 *****  OTHER OBSERVATIONS SOUTHEAST NORTH DAKOTA *****

CITY           SKY/WX    TMP DP  RH WIND       PRES   REMARKS
COOPERSTOWN    CLOUDY    30  28  93 NE8       30.21S WCI  23
VALLEY CITY    CLOUDY    30  30 100 E8        30.21S WCI  23
OAKES          NOT AVBL
GWINNER        CLEAR     30  28  93 MISG      30.19S
SHEYENNE NWR     N/A     31  28  88 N5        29.95S
BUFFALO        NOT AVBL
WYNDMERE         N/A     32  30  93 N7          N/A
 ***** THE ABOVE OBSERVATIONS ARE NON NWS ARE NOT QUALITY
       CONTROLLED AND MAY MIS-REPORT RAIN FOR SNOW...
$$

  *****  WEATHER ACROSS NORTHERN MINNESOTA  *****

CITY           SKY/WX    TMP DP  RH WIND       PRES   REMARKS
FLAG ISLAND    CLOUDY    34  25  69 NE6       30.25R
WARROAD        FAIR      30  27  86 NE5       30.25R
ROSEAU         FAIR      30  27  86 E3        30.24S
HALLOCK        MOCLDY    34  30  86 CALM      30.24S
THF RVR FALLS  FAIR     N/A N/A N/A N8        30.22S
HALSTAD          N/A     31  28  88 N8          N/A  WCI  24
FOSSTON        FAIR      28  27  93 N5        30.20S WCI  23
BAUDETTE       MOCLDY    33  25  72 NE7       30.22R
WASKISH        CLOUDY    37  28  70 E6        30.22R
CROOKSTON      FAIR      30  28  93 N6        30.24R WCI  24
$$
  *****  WEATHER ACROSS CENTRAL AND WEST MINNESOTA  *****

CITY           SKY/WX    TMP DP  RH WIND       PRES   REMARKS
BEMIDJI        CLOUDY    35  29  78 E5        30.21R
PARK RAPIDS    CLOUDY    39  27  62 E6        30.19R
WADENA         CLOUDY    36  28  75 NE5       30.19R
DETROIT LAKES  FAIR      34  30  86 E3        30.20R
MOORHEAD       FAIR      32  30  93 N8        30.22R WCI  25
FERGUS FALLS   FAIR      34  28  80 N5        30.21R
ELBOW LAKE     FAIR      35  31  85 CALM      30.17S
MORRIS MN      FAIR      37  32  81 E6        30.16S
STAPLES        CLOUDY    37  30  75 NE5       30.19S
WHEATON        FAIR      32  30  93 N7        30.19S
$$
  *****  WEATHER ELSEWHERE ACROSS MINNESOTA  *****

CITY           SKY/WX    TMP DP  RH WIND       PRES   REMARKS
DULUTH         LGT SNOW  34  32  92 E9        30.21S FOG
INTRNTL FALLS  CLOUDY    36  26  67 NE5       30.23R
ELY            CLOUDY    34  30  86 CALM      30.24R
CLOQUET        CLOUDY    36  32  87 NE8       30.20F
BRAINERD       CLOUDY    37  30  75 NE6       30.19S
HIBBING        CLOUDY    33  31  92 CALM      30.22R
ALEXANDRIA     FAIR      35  30  82 NE9       30.17R
SAINT CLOUD    CLOUDY    39  33  79 E7        30.19R
MINNEAPOLIS    CLOUDY    40  33  76 NE13G25   30.18R
$$

  *****  WEATHER ACROSS SOUTH DAKOTA  *****

CITY           SKY/WX    TMP DP  RH WIND       PRES   REMARKS
SIOUX FALLS    CLOUDY    39  35  86 NE17      30.14R
BROOKINGS      CLOUDY    37  34  87 NE8       30.13S
WATERTOWN      MOCLDY    34  31  88 NE5       30.15R
HURON          FAIR      36  33  89 SE5       30.15R
SISSETON         N/A     31  29  92 N7        30.16S WCI  24
ABERDEEN       FAIR      35  29  78 NE9       30.15S
MITCHELL       MOCLDY    37  34  89 NE7       30.17R
PIERRE         FAIR      40  32  73 E9        30.10S
MOBRIDGE       FAIR      43  31  62 E10       30.09R
RAPID CITY     FAIR      45  29  53 SE7       30.05R
$$

  *****  SOME WEATHER IN NEARBY STATES *****

CITY           SKY/WX    TMP DP  RH WIND       PRES   REMARKS
GLASGOW MT     FAIR      51  30  44 SE14      29.81F
GREAT FALLS MT CLOUDY    55  23  28 W18       29.73R
CHEYENNE WY    FAIR      42  22  44 E9        30.13R
SCOTTSBLUFF NE FAIR      43  29  57 E5        30.10R
OMAHA NE       LGT RAIN  43  38  82 N16       29.99R
DES MOINES IA  DRIZZLE   46  43  89 NE20      29.96F FOG
DAVENPORT IA   LGT RAIN  54  53  97 NE8       29.99F FOG
CHICAGO IL     CLOUDY    43  36  76 NE15      30.06R
EAU CLAIRE WI  CLOUDY    39  34  82 NE6       30.17R
LA CROSSE WI   LGT RAIN  42  38  85 NE7       30.13R
$$

  *****  SOME NATIONAL WEATHER *****

CITY           SKY/WX    TMP DP  RH WIND       PRES   REMARKS
LA GUARDIA NY  MOCLDY    56  33  42 W12       30.16R
RALEIGH NC     FAIR      59  45  59 SW5       30.33S
ATLANTA GA     MOCLDY    69  50  50 SE3       30.30R
NEW ORLEANS LA CLOUDY    71  66  84 SE16      30.11F
OKLAHOMA CITY  MOCLDY    55  48  77 S5        29.71R
ALBUQUERQUE NM FAIR      63  15  15 NW15      30.10R
SALT LAKE CITY CLOUDY    55  34  45 SE8       30.02F
LOS ANGELES CA MOCLDY    59  52  77 W17       30.16S
BOISE ID       LGT RAIN  47  44  90 W12G22    30.03R
SEATTLE WA     LGT RAIN  48  45  89 S17       29.90R
$$

*** WEATHER ACROSS MANITOBA...SASKATCHEWAN AND ONTARIO ***
                ***ONTARIO***

CITY           SKY/WX    TMP DP  RH WIND       PRES   REMARKS
GERALDTON      CLEAR     19  -6  32 NE9       30.32R WCI   9
THUNDER BAY    MOCLDY    32  21  64 N3        30.28R
SIOUX LOOKOUT  PTCLDY    28  16  59 E3        30.26R
TORONTO        LGT RAIN  41  37  87 N16       30.09S
BIG TROUT LK   PTCLDY     0  -8  71 CALM      30.40R
PICKLE LAKE    CLEAR     19  -8  30 E7        30.31R WCI  10
DRYDEN         PTCLDY    30  19  64 NE3       30.25R
KENORA         MOCLDY    32  21  64 SE6       30.25
$$
                *** MANITOBA***

CITY           SKY/WX    TMP DP  RH WIND       PRES   REMARKS
BRANDON        PTCLDY    30  25  80 SE8       30.20R WCI  23
DAUPHIN        CLEAR     28  23  80 SE12      30.19S WCI  18
ISLAND LAKE    PTCLDY    16  -2  45 E3        30.35
PILOT MOUND      N/A     28  25  86 SE12        N/A  WCI  18
THE PAS        CLOUDY    23  10  58 E7        30.20S WCI  15
THOMPSON       CLOUDY    16   0  48 E3        30.30S
WINNIPEG       CLOUDY    32  25  74 NE2       30.26R
LYNN LAKE      CLOUDY    16   7  67 SE6       30.18S WCI   7
CHURCHILL      CLEAR      0 -11  60 S6        30.39F WCI -12
GILLAM         PTCLDY    -6 -15  65 E3        30.39R
$$
                ***SASKATCHEWAN***

CITY           SKY/WX    TMP DP  RH WIND       PRES   REMARKS
ESTEVAN        MOCLDY    32  30  93 E18G25    30.02S WCI  20
KINDERSLEY     CLOUDY    43  36  75 E14       29.71F
LLOYDMINSTER   CLOUDY    34  30  86 SE18G25   29.76F WCI  23
PRINCE ALBERT  CLOUDY    30  23  74 E15       29.99F WCI  19
REGINA         CLOUDY    34  30  86 SE23G33   29.93S WCI  22
YORKTON        PTCLDY    30  27  86 SE15      30.06F WC



USA.gov is the U.S. government's official web portal to all federal, state and local government web resources and services.